Hutchinson, MN

9:16 AM CDT on March 26, 2017 (GMT -0500)
Hutchinson Municipal-Butler

Weather History for KHCD - September, 2012

Change the Weather History Date:

Saturday, September 15, 2012

  Actual Average Record
Temperature  
Mean Temperature 64 °F -  
Max Temperature 85 °F 70 °F 86 °F (2015)
Min Temperature 43 °F 47 °F 1 °F (2004)
Degree Days  
Heating Degree Days 1    
Growing Degree Days 14 (Base 50)    
Moisture  
Dew Point 46 °F    
Average Humidity 54    
Maximum Humidity 97    
Minimum Humidity 26    
Precipitation  
Precipitation 0.00 in - - ()
Sea Level Pressure  
Sea Level Pressure 30.08 in    
Wind  
Wind Speed 6 mph (South)    
Max Wind Speed 13 mph    
Max Gust Speed 24 mph    
Visibility 10 miles    
Events      
Averages and records for this station are not official NWS values.
T = Trace of Precipitation, MM = Missing Value Source: NWS Daily Summary

Daily Weather History Graph

Daily Weather History Graph

Search for Another Location

Airport or City:

Trip Planner

Search our weather history database for the weather conditions in past years. The results will help you decide how hot, cold, wet, or windy it might be!

Date:

Astronomy

Sep. 15, 2012 Rise Set
Actual Time 6:56 AM CDT 7:27 PM CDT
Civil Twilight 6:27 AM CDT 7:56 PM CDT
Nautical Twilight 5:52 AM CDT 8:31 PM CDT
Astronomical Twilight 5:16 AM CDT 9:07 PM CDT
Moon 6:29 AM CDT (9/15) 6:55 PM CDT (9/15)
Length of Visible Light 13h 29m
Length of Day
12h 30m
Waning Crescent, 0% of the Moon is Illuminated
Sep 15
Waning Crescent
Sep 15
New
Sep 22
First Quarter
Sep 29
Full
Oct 8
Last Quarter

Hourly Weather History & Observations

Time (CDT) Temp. Dew Point Humidity Pressure Visibility Wind Dir Wind Speed Gust Speed Precip Events Conditions
12:09 AM 56.7 °F 44.2 °F 63% 30.23 in 10.0 mi East 5.8 mph - N/A   Clear
12:29 AM 54.1 °F 43.0 °F 66% 30.23 in 10.0 mi East 5.8 mph - N/A   Clear
12:49 AM 55.4 °F 43.7 °F 65% 30.22 in 10.0 mi East 5.8 mph - N/A   Clear
1:09 AM 55.4 °F 43.7 °F 65% 30.22 in 10.0 mi East 6.9 mph - N/A   Clear
1:29 AM 56.5 °F 44.1 °F 63% 30.21 in 10.0 mi East 8.1 mph - N/A   Clear
1:48 AM 56.7 °F 43.9 °F 62% 30.21 in 10.0 mi East 5.8 mph - N/A   Clear
2:09 AM 54.1 °F 42.3 °F 64% 30.20 in 10.0 mi East 8.1 mph - N/A   Clear
2:29 AM 54.1 °F 44.2 °F 69% 30.19 in 10.0 mi East 3.5 mph - N/A   Clear
2:49 AM 51.8 °F 43.0 °F 72% 30.18 in 10.0 mi East 5.8 mph - N/A   Clear
3:09 AM 51.8 °F 43.0 °F 72% 30.18 in 10.0 mi East 3.5 mph - N/A   Clear
3:49 AM 49.1 °F 43.5 °F 81% 30.17 in 10.0 mi ESE 4.6 mph - N/A   Clear
4:09 AM 49.1 °F 43.2 °F 80% 30.16 in 10.0 mi ESE 4.6 mph - N/A   Clear
4:29 AM 49.1 °F 43.5 °F 81% 30.16 in 10.0 mi SE 4.6 mph - N/A   Clear
4:49 AM 49.1 °F 44.6 °F 84% 30.16 in 10.0 mi SE 3.5 mph - N/A   Clear
5:09 AM 49.1 °F 45.0 °F 86% 30.16 in 10.0 mi SE 3.5 mph - N/A   Clear
5:29 AM 48.7 °F 45.3 °F 88% 30.16 in 10.0 mi SE 4.6 mph - N/A   Clear
5:48 AM 48.7 °F 46.0 °F 90% 30.16 in 10.0 mi Calm Calm - N/A   Clear
6:09 AM 49.1 °F 46.4 °F 90% 30.16 in 10.0 mi Calm Calm - N/A   Clear
6:28 AM 47.7 °F 45.1 °F 91% 30.15 in 10.0 mi Calm Calm - N/A   Clear
7:08 AM 43.0 °F 41.9 °F 96% 30.16 in 10.0 mi Calm Calm - N/A   Clear
7:29 AM 44.1 °F 43.3 °F 97% 30.16 in 10.0 mi Calm Calm - N/A   Clear
7:49 AM 48.0 °F 47.1 °F 97% 30.16 in 10.0 mi SE 3.5 mph - N/A   Clear
8:09 AM 49.1 °F 47.3 °F 93% 30.15 in 10.0 mi SSE 3.5 mph - N/A   Clear
8:29 AM 54.1 °F 49.6 °F 85% 30.15 in 10.0 mi SSE 3.5 mph - N/A   Clear
8:49 AM 56.7 °F 49.1 °F 76% 30.15 in 10.0 mi South 4.6 mph - N/A   Clear
9:09 AM 59.2 °F 50.0 °F 72% 30.14 in 10.0 mi South 6.9 mph - N/A   Clear
9:29 AM 60.3 °F 49.5 °F 68% 30.14 in 10.0 mi SSW 6.9 mph - N/A   Clear
9:49 AM 61.7 °F 49.8 °F 65% 30.14 in 10.0 mi South 6.9 mph - N/A   Clear
10:09 AM 64.4 °F 50.2 °F 60% 30.13 in 10.0 mi SSW 8.1 mph - N/A   Clear
10:29 AM 66.7 °F 50.9 °F 57% 30.12 in 10.0 mi SSW 8.1 mph - N/A   Clear
10:49 AM 69.3 °F 52.2 °F 54% 30.12 in 10.0 mi SSW 8.1 mph - N/A   Clear
11:09 AM 69.3 °F 50.0 °F 50% 30.11 in 10.0 mi SSW 6.9 mph - N/A   Clear
11:28 AM 71.4 °F 51.1 °F 49% 30.11 in 10.0 mi SSW 5.8 mph - N/A   Clear
11:49 AM 74.3 °F 51.6 °F 45% 30.10 in 10.0 mi SSW 8.1 mph - N/A   Clear
12:09 PM 74.3 °F 49.5 °F 41% 30.09 in 10.0 mi SW 6.9 mph - N/A   Clear
12:29 PM 76.1 °F 49.6 °F 39% 30.08 in 10.0 mi South 8.1 mph - N/A   Clear
12:49 PM 77.0 °F 49.3 °F 38% 30.08 in 10.0 mi South 8.1 mph - N/A   Clear
1:09 PM 77.4 °F 48.6 °F 36% 30.07 in 10.0 mi SSW 8.1 mph - N/A   Clear
1:29 PM 79.3 °F 47.8 °F 33% 30.06 in - SSW 11.5 mph - N/A   Clear
1:49 PM 81.1 °F 48.0 °F 31% 30.05 in 10.0 mi South 8.1 mph - N/A   Clear
2:09 PM 81.9 °F 47.5 °F 30% 30.04 in 10.0 mi SSW 11.5 mph 17.3 mph N/A   Clear
2:29 PM 83.1 °F 47.7 °F 29% 30.03 in 10.0 mi SW 10.4 mph 16.1 mph N/A   Clear
2:49 PM 84.0 °F 47.5 °F 28% 30.02 in 10.0 mi SSW 11.5 mph 18.4 mph N/A   Clear
3:08 PM 83.8 °F 46.9 °F 28% 30.01 in 10.0 mi SSW 9.2 mph - N/A   Clear
3:29 PM 83.8 °F 46.6 °F 27% 30.00 in 10.0 mi SSW 11.5 mph 20.7 mph N/A   Clear
3:49 PM 85.5 °F 47.3 °F 26% 30.00 in 10.0 mi SW 11.5 mph 18.4 mph N/A   Clear
4:09 PM 83.8 °F 46.8 °F 27% 29.99 in 10.0 mi SSW 9.2 mph 19.6 mph N/A   Clear
4:29 PM 84.0 °F 46.6 °F 27% 29.98 in 10.0 mi SSW 12.7 mph 24.2 mph N/A   Clear
4:49 PM 84.2 °F 46.2 °F 26% 29.98 in 10.0 mi SSW 12.7 mph 18.4 mph N/A   Clear
5:07 PM 84.2 °F 46.0 °F 26% - 10.0 mi SW 11.5 mph 20.7 mph N/A   Clear
5:29 PM 83.3 °F 46.2 °F 27% 29.98 in 10.0 mi SSW 11.5 mph 19.6 mph N/A   Clear
5:49 PM 81.9 °F 46.2 °F 29% 29.98 in 10.0 mi SSW 11.5 mph 17.3 mph N/A   Clear
6:08 PM 81.3 °F 46.4 °F 29% 29.97 in 10.0 mi SSW 6.9 mph 17.3 mph N/A   Clear
6:29 PM 79.7 °F 45.5 °F 30% 29.97 in 10.0 mi SSW 6.9 mph - N/A   Clear
6:49 PM 78.4 °F 45.5 °F 31% 29.97 in 10.0 mi South 8.1 mph - N/A   Clear
7:05 PM 77.0 °F 45.5 °F 33% 29.97 in 10.0 mi South 5.8 mph - N/A   Clear
7:29 PM 74.3 °F 45.0 °F 35% 29.96 in 10.0 mi South 5.8 mph - N/A   Clear
7:49 PM 74.3 °F 46.2 °F 37% 29.97 in 10.0 mi South 6.9 mph - N/A   Clear
8:09 PM 71.1 °F 45.0 °F 39% 29.97 in 10.0 mi South 6.9 mph - N/A   Clear
8:29 PM 69.3 °F 44.4 °F 41% 29.97 in 10.0 mi South 6.9 mph - N/A   Clear
8:49 PM 69.3 °F 45.3 °F 42% 29.97 in 10.0 mi South 6.9 mph - N/A   Clear
9:09 PM 69.3 °F 46.0 °F 43% 29.97 in 10.0 mi South 6.9 mph - N/A   Clear
9:29 PM 69.3 °F 46.8 °F 45% 29.97 in 10.0 mi South 8.1 mph - N/A   Clear
9:49 PM 69.3 °F 47.5 °F 46% 29.96 in 10.0 mi South 6.9 mph - N/A   Clear
10:09 PM 66.7 °F 45.7 °F 47% 29.97 in 10.0 mi South 6.9 mph - N/A   Clear
10:29 PM 66.9 °F 45.5 °F 46% 29.97 in 10.0 mi South 6.9 mph - N/A   Clear
10:48 PM 68.4 °F 46.8 °F 46% 29.96 in 10.0 mi South 8.1 mph - N/A   Clear
11:09 PM 69.3 °F 47.7 °F 46% 29.96 in 10.0 mi South 8.1 mph - N/A   Clear
11:29 PM 66.7 °F 46.4 °F 48% 29.96 in 10.0 mi South 9.2 mph - N/A   Clear
11:49 PM 66.7 °F 47.1 °F 49% 29.96 in 10.0 mi South 6.9 mph - N/A   Clear